Simultaneous Nadir Overpasses (SNOs) Predictions

Prediction of SNOs between GOES-15 and TERRA Satellite Orbit:

Table of predicted SNOs for the next 14.0 days since TLE Epoch: 2/15/2014
Index Date Time (GOES-15) GOES-15 Lat,Lon TERRA Lat,Lon Distance(km) Time Diff (sec)
1 02/16/2014 07:28:10 -0.07,-135.35 -0.01,-134.92 48.35 80
2 02/18/2014 07:16:00 -0.07,-135.33 0.63,-131.97 381.81 80
3 02/18/2014 19:37:15 0.08,-135.35 0.44,-137.13 202.51 80
4 02/20/2014 19:27:44 0.07,-135.32 -0.20,-134.18 130.49 80
5 02/21/2014 07:49:08 -0.08,-135.29 -0.92,-139.37 463.32 80
6 02/22/2014 19:15:32 0.07,-135.28 -0.82,-131.22 462.74 80
7 02/23/2014 07:36:55 -0.07,-135.25 -0.35,-136.40 131.25 80
8 02/25/2014 07:22:03 -0.07,-135.20 0.33,-133.44 200.46 80
9 02/25/2014 19:43:18
